(499751) = 2011 BY99 = 2013 SU10 = 2015 ER46

Discovered at Mount Lemmon on 2011-01-11 by Mt. Lemmon Survey.

Orbit

Orbit type: Main Belt

Note: WebGL enabled browser required.

epoch2024-03-31.0
epoch JD2460400.5
perihelion date2022-01-28.23078
perihelion JD2459607.73078
argument of perihelion (°)224.36420
ascending node (°)200.93496
inclination (°)0.71440
eccentricity0.1731921
perihelion distance (AU)2.0415371
Tisserand w.r.t. Jupiter3.5
ΔV w.r.t. Earth (km/sec)8.9
semimajor axis (AU)2.4691795
mean anomaly (°)201.38245
mean daily motion (°/day)0.25402410
aphelion distance (AU)2.897
period (years)3.88
P-vector [x]0.41789986
P-vector [y]0.83695559
P-vector [z]0.35336250
Q-vector [x]-0.90848217
Q-vector [y]0.38689586
Q-vector [z]0.15802446
absolute magnitude17.68
phase slope0.15
uncertainty0
referenceMPEC 2024-E123
observations used253
oppositions10
arc length (days)6500
first opposition used2005
last opposition used2023
residual rms (arc-secs)0.70
perturbers coarse indicatorM-v
perturbers precise indicator003Ek
first observation date used2005-07-05.0
last observation date used2023-04-22.0
computer nameMPCLINUX
JD of orbit computation2458026.119509
perihelion JD uncertainty (days)1.5266E-04
argument of perihelion uncertainty (°)5.8529E-04
ascending node uncertainty (°)5.8421E-04
inclination uncertainty (°)8.3885E-06
eccentricity uncertainty 3.4057E-08
perihelion distance uncertainty (AU)8.8783E-08
Minimum Orbit Intersection Distances (in AU)
for orbit epoch: 2460200.5, reference: E2024-CB5
Mercury1.73282
Venus1.32048
Earth1.05435
Mars0.50224
Jupiter2.40456
Saturn6.91592
Uranus15.8326
Neptune27.5669

Observations

256 total observations over interval: 2005 07 05.42002 – 2023 04 22.337142
These data are available for download (format description).

Date (UT) J2000 RA J2000 Dec Magn Location Ref
2005 07 05.42002 21 39 42.66 -12 54 38.1 21.8 V G96 – Mt. Lemmon Survey MPS 815540
2005 07 05.42818 21 39 42.48 -12 54 38.9 21.8 V G96 – Mt. Lemmon Survey MPS 815540
2005 07 05.43634 21 39 42.26 -12 54 40.0 21.3 V G96 – Mt. Lemmon Survey MPS 815540
2005 07 05.44456 21 39 42.08 -12 54 40.8 22.3 V G96 – Mt. Lemmon Survey MPS 815540
2006 12 27.35255 09 21 34.09 +14 15 38.9 20.9 V G96 – Mt. Lemmon Survey MPS 815540
2006 12 27.35975 09 21 33.94 +14 15 39.4 20.7 V G96 – Mt. Lemmon Survey MPS 815540
2006 12 27.36713 09 21 33.80 +14 15 39.6 20.9 V G96 – Mt. Lemmon Survey MPS 815540
2006 12 27.37440 09 21 33.66 +14 15 40.3 20.9 V G96 – Mt. Lemmon Survey MPS 815540
2007 01 24.37234 09 02 02.11 +15 38 16.8 19.8 V 703 – Catalina Sky Survey MPS 2151984
2007 01 24.37890 09 02 01.82 +15 38 20.2 20.5 V 703 – Catalina Sky Survey MPS 871584
2007 01 24.38547 09 02 01.39 +15 38 22.0 20.8 V 703 – Catalina Sky Survey MPS 871584
2007 01 24.39202 09 02 00.92 +15 38 25.1 20.6 V 703 – Catalina Sky Survey MPS 871584
2009 09 21.20635 21 52 04.51 -12 06 27.2 20.8 V G96 – Mt. Lemmon Survey MPS 815540
2009 09 21.21402 21 52 04.18 -12 06 29.3 20.6 V G96 – Mt. Lemmon Survey MPS 815540
2009 09 21.22164 21 52 03.97 -12 06 30.6 21.0 V G96 – Mt. Lemmon Survey MPS 815540
2009 09 21.22939 21 52 03.68 -12 06 32.5 20.8 V G96 – Mt. Lemmon Survey MPS 815540
2011 01 11.39987 10 31 17.11 +08 14 49.9 21.0 V G96 – Mt. Lemmon Survey MPS 384093
2011 01 11.40685 10 31 17.07 +08 14 50.3 21.1 V G96 – Mt. Lemmon Survey MPS 384093
2011 01 11.41394 10 31 16.89 +08 14 50.9 21.2 V G96 – Mt. Lemmon Survey MPS 384093
2011 01 11.42089 10 31 16.82 +08 14 51.0 22.4 V G96 – Mt. Lemmon Survey MPS 384093
2011 01 30.40492 10 21 20.831 +09 10 35.16 21.0 w F51 – Pan-STARRS 1, Haleakala MPS 384093
2011 01 30.41971 10 21 20.117 +09 10 39.11 21.0 w F51 – Pan-STARRS 1, Haleakala MPS 384093
2011 01 30.43578 10 21 19.332 +09 10 43.47 21.1 w F51 – Pan-STARRS 1, Haleakala MPS 384093
2011 01 30.45055 10 21 18.612 +09 10 47.51 21.0 w F51 – Pan-STARRS 1, Haleakala MPS 384093
2011 02 04.45128 10 17 11.297 +09 34 29.34 21.2 w F51 – Pan-STARRS 1, Haleakala MPS 384093
2011 02 04.46557 10 17 10.470 +09 34 33.35 21.0 w F51 – Pan-STARRS 1, Haleakala MPS 384093
2011 02 04.47999 10 17 09.682 +09 34 37.69 20.9 w F51 – Pan-STARRS 1, Haleakala MPS 384093
2011 02 04.49443 10 17 08.893 +09 34 42.01 21.0 w F51 – Pan-STARRS 1, Haleakala MPS 384093
2011 02 05.43936 10 16 19.250 +09 39 28.32 20.8 w F51 – Pan-STARRS 1, Haleakala MPS 384093
2011 02 05.45363 10 16 18.456 +09 39 32.76 21.0 w F51 – Pan-STARRS 1, Haleakala MPS 384093
2011 02 05.46807 10 16 17.648 +09 39 37.14 20.8 w F51 – Pan-STARRS 1, Haleakala MPS 384094
2011 02 05.48245 10 16 16.849 +09 39 41.45 20.9 w F51 – Pan-STARRS 1, Haleakala MPS 384094
2011 02 10.32253 10 11 50.46 +10 05 12.5 20.5 V G96 – Mt. Lemmon Survey MPS 384094
2011 02 10.32946 10 11 50.06 +10 05 14.9 20.5 V G96 – Mt. Lemmon Survey MPS 384094
2011 02 10.33643 10 11 49.66 +10 05 16.8 20.4 V G96 – Mt. Lemmon Survey MPS 384094
2011 02 10.34340 10 11 49.27 +10 05 19.8 20.5 V G96 – Mt. Lemmon Survey MPS 384094
2013 08 15.50529 23 37 17.614 -01 37 57.47 20.8 w F51 – Pan-STARRS 1, Haleakala MPS 815540
2013 08 15.52085 23 37 17.153 -01 38 00.27 20.9 w F51 – Pan-STARRS 1, Haleakala MPS 815540
2013 08 15.53643 23 37 16.685 -01 38 03.16 21.0 w F51 – Pan-STARRS 1, Haleakala MPS 815540
2013 09 03.42946 23 24 39.299 -03 01 53.34 20.3 w F51 – Pan-STARRS 1, Haleakala MPS 815540
2013 09 03.44434 23 24 38.519 -03 01 58.25 20.4 w F51 – Pan-STARRS 1, Haleakala MPS 815540
2013 09 03.45927 23 24 37.727 -03 02 03.36 20.4 w F51 – Pan-STARRS 1, Haleakala MPS 815540
2013 09 12.37014 23 16 50.04 -03 54 21.0 19.7 V G96 – Mt. Lemmon Survey MPS 815540
2013 09 12.37454 23 16 49.80 -03 54 22.8 19.8 V G96 – Mt. Lemmon Survey MPS 815540
2013 09 12.37890 23 16 49.56 -03 54 24.1 19.8 V G96 – Mt. Lemmon Survey MPS 815540
2013 09 12.38326 23 16 49.31 -03 54 25.8 20.0 V G96 – Mt. Lemmon Survey MPS 815540
2013 09 23.25314 23 07 18.58 -04 58 48.2 20.3 V G96 – Mt. Lemmon Survey MPS 477898
2013 09 23.25903 23 07 18.31 -04 58 49.9 19.8 V G96 – Mt. Lemmon Survey MPS 477898
2013 09 23.26497 23 07 17.93 -04 58 52.5 20.5 V G96 – Mt. Lemmon Survey MPS 477898
2013 09 23.27131 23 07 17.63 -04 58 54.4 20.4 V G96 – Mt. Lemmon Survey MPS 477898
2013 10 09.16833 22 56 21.81 -06 14 41.9 20.4 V G96 – Mt. Lemmon Survey MPS 815540
2013 10 09.17442 22 56 21.61 -06 14 43.1 20.6 V G96 – Mt. Lemmon Survey MPS 815540
2013 10 09.18052 22 56 21.39 -06 14 44.4 20.7 V G96 – Mt. Lemmon Survey MPS 815540
2013 10 09.18660 22 56 21.20 -06 14 45.7 20.7 V G96 – Mt. Lemmon Survey MPS 815540
2015 01 29.52014 11 29 56.777 +02 24 30.65 21.0 i F51 – Pan-STARRS 1, Haleakala MPS 815540
2015 01 29.53152 11 29 56.498 +02 24 32.10 20.9 i F51 – Pan-STARRS 1, Haleakala MPS 815540
2015 01 29.54290 11 29 56.245 +02 24 33.66 20.9 i F51 – Pan-STARRS 1, Haleakala MPS 815540
2015 01 29.55427 11 29 55.986 +02 24 35.29 20.9 i F51 – Pan-STARRS 1, Haleakala MPS 815540
2015 01 31.53344 11 29 11.928 +02 29 15.19 21.0 i F51 – Pan-STARRS 1, Haleakala MPS 815540
2015 01 31.54524 11 29 11.592 +02 29 16.93 21.1 i F51 – Pan-STARRS 1, Haleakala MPS 815540
2015 01 31.55697 11 29 11.295 +02 29 18.62 20.9 i F51 – Pan-STARRS 1, Haleakala MPS 815540
2015 02 10.42948 11 23 56.06 +03 03 09.8 20.5 V G96 – Mt. Lemmon Survey MPS 815540
2015 02 10.43559 11 23 55.75 +03 03 11.6 20.4 V G96 – Mt. Lemmon Survey MPS 815540
2015 02 10.44169 11 23 55.52 +03 03 12.5 20.6 V G96 – Mt. Lemmon Survey MPS 815540
2015 02 10.44778 11 23 55.30 +03 03 14.0 20.7 V G96 – Mt. Lemmon Survey MPS 815540
2015 02 26.25750 11 11 10.05 +04 26 26.7 20.2 V G96 – Mt. Lemmon Survey MPS 815540
2015 02 26.26161 11 11 09.82 +04 26 28.2 19.9 V G96 – Mt. Lemmon Survey MPS 815540
2015 02 26.26570 11 11 09.58 +04 26 29.9 20.0 V G96 – Mt. Lemmon Survey MPS 815540
2015 02 26.26980 11 11 09.38 +04 26 31.3 20.3 V G96 – Mt. Lemmon Survey MPS 815540
2015 02 27.24036 11 10 15.99 +04 32 20.7 20.7 V 691 – Steward Observatory, Kitt Peak-Spacewatch MPS 815540
2015 02 27.25953 11 10 14.86 +04 32 28.0 21.4 V 691 – Steward Observatory, Kitt Peak-Spacewatch MPS 815540
2015 02 27.27872 11 10 13.73 +04 32 34.7 20.6 V 691 – Steward Observatory, Kitt Peak-Spacewatch MPS 815540
2015 03 09.33140 11 00 51.46 +05 33 59.3 20.0 V G96 – Mt. Lemmon Survey MPS 815540
2015 03 09.33870 11 00 51.01 +05 34 02.0 19.7 V G96 – Mt. Lemmon Survey MPS 815540
2015 03 09.34599 11 00 50.63 +05 34 04.9 20.0 V G96 – Mt. Lemmon Survey MPS 815540
2015 03 09.35330 11 00 50.19 +05 34 07.6 20.4 V G96 – Mt. Lemmon Survey MPS 815540
2015 03 14.36734 10 56 18.444 +06 03 55.34 20.7 w F51 – Pan-STARRS 1, Haleakala MPS 587430
2015 03 14.37947 10 56 17.777 +06 03 59.70 20.7 w F51 – Pan-STARRS 1, Haleakala MPS 587430
2015 03 14.39160 10 56 17.104 +06 04 03.82 20.8 w F51 – Pan-STARRS 1, Haleakala MPS 587430
2015 03 15.37968 10 55 25.310 +06 09 44.81 20.7 w F51 – Pan-STARRS 1, Haleakala MPS 587430
2015 03 15.39204 10 55 24.644 +06 09 48.95 20.7 w F51 – Pan-STARRS 1, Haleakala MPS 587430
2015 03 15.40436 10 55 23.973 +06 09 53.29 20.9 w F51 – Pan-STARRS 1, Haleakala MPS 587430
2015 03 15.41666 10 55 23.302 +06 09 57.48 20.6 w F51 – Pan-STARRS 1, Haleakala MPS 587430
2015 03 23.28889 10 49 01.69 +06 51 56.2 20.8 V G96 – Mt. Lemmon Survey MPS 592434
2015 03 23.29346 10 49 01.48 +06 51 57.7 21.0 V G96 – Mt. Lemmon Survey MPS 592434
2015 03 23.31794 10 49 00.29 +06 52 04.4 20.5 V G96 – Mt. Lemmon Survey MPS 592434
2015 03 23.32251 10 49 00.15 +06 52 05.7 20.8 V G96 – Mt. Lemmon Survey MPS 592434
2015 04 10.24827 10 39 32.119 +07 56 50.33 21.2 w F51 – Pan-STARRS 1, Haleakala MPS 598523
2015 04 10.26024 10 39 31.891 +07 56 51.94 21.4 w F51 – Pan-STARRS 1, Haleakala MPS 598523
2015 04 10.27225 10 39 31.647 +07 56 53.74 21.4 w F51 – Pan-STARRS 1, Haleakala MPS 598523
2015 04 10.28441 10 39 31.408 +07 56 55.38 21.6 w F51 – Pan-STARRS 1, Haleakala MPS 598523
2017 07 30.54271 00 47 08.741 +05 37 08.12 21.4 w F51 – Pan-STARRS 1, Haleakala MPS 807932
2017 07 30.54400 00 47 08.781 +05 37 08.23 21.3 w F51 – Pan-STARRS 1, Haleakala MPS 807932
